TimeCST,TemperatureF,Dew PointF,Humidity,Sea Level PressureIn,VisibilityMPH,Wind Direction,Wind SpeedMPH,Gust SpeedMPH,PrecipitationIn,Events,Conditions,WindDirDegrees,DateUTC
12:15 AM,14.4,5.4,67,30.22,10.0,ENE,9.2,-,N/A,,Overcast,60,2013-12-14 06:15:00
12:35 AM,14.2,5.5,69,30.22,10.0,ENE,10.4,-,N/A,,Overcast,60,2013-12-14 06:35:00
12:55 AM,14.4,5.9,69,30.22,10.0,NE,6.9,-,N/A,,Overcast,50,2013-12-14 06:55:00
1:15 AM,14.5,6.6,71,30.21,10.0,NE,10.4,-,N/A,,Overcast,50,2013-12-14 07:15:00
1:35 AM,14.5,7.0,72,30.22,10.0,ENE,6.9,-,N/A,,Overcast,60,2013-12-14 07:35:00
1:55 AM,14.7,7.5,73,30.22,10.0,ENE,8.1,-,N/A,,Overcast,60,2013-12-14 07:55:00
2:15 AM,14.5,7.5,74,30.21,10.0,ENE,8.1,-,N/A,,Overcast,60,2013-12-14 08:15:00
2:35 AM,14.5,8.1,75,30.21,10.0,NE,8.1,-,N/A,,Overcast,50,2013-12-14 08:35:00
2:55 AM,14.0,9.1,81,30.21,4.0,NE,6.9,-,N/A,,Haze,50,2013-12-14 08:55:00
3:15 AM,14.0,9.3,82,30.20,4.0,NE,8.1,-,N/A,Snow,Light Snow,40,2013-12-14 09:15:00
3:35 AM,14.0,9.5,82,30.20,3.0,ENE,6.9,-,N/A,Snow,Light Snow,60,2013-12-14 09:35:00
3:55 AM,14.0,9.5,82,30.19,7.0,NE,5.8,-,N/A,,Mostly Cloudy,50,2013-12-14 09:55:00
4:15 AM,14.0,9.3,82,30.18,10.0,ENE,10.4,-,N/A,,Mostly Cloudy,60,2013-12-14 10:15:00
4:35 AM,14.0,9.3,82,30.18,7.0,ENE,8.1,-,N/A,,Overcast,60,2013-12-14 10:35:00
4:55 AM,14.0,9.5,82,30.17,5.0,ENE,9.2,-,N/A,,Haze,70,2013-12-14 10:55:00
5:15 AM,14.0,9.5,82,30.17,10.0,ENE,5.8,-,N/A,,Mostly Cloudy,70,2013-12-14 11:15:00
5:35 AM,14.0,9.5,82,30.17,10.0,East,5.8,-,N/A,,Mostly Cloudy,80,2013-12-14 11:35:00
5:55 AM,14.0,9.3,82,30.18,10.0,ENE,6.9,-,N/A,,Mostly Cloudy,60,2013-12-14 11:55:00
6:15 AM,14.0,9.5,82,30.17,10.0,ENE,6.9,-,N/A,,Scattered Clouds,60,2013-12-14 12:15:00
6:35 AM,14.4,9.5,81,30.17,5.0,ENE,8.1,-,N/A,Snow,Light Snow,60,2013-12-14 12:35:00
6:55 AM,14.4,9.9,82,30.17,4.0,ENE,5.8,-,N/A,Snow,Light Snow,60,2013-12-14 12:55:00
7:15 AM,14.4,10.0,83,30.17,5.0,ENE,5.8,-,N/A,Snow,Light Snow,60,2013-12-14 13:15:00
7:35 AM,14.4,10.4,84,30.17,3.0,ENE,4.6,-,N/A,Snow,Light Snow,70,2013-12-14 13:35:00
7:55 AM,14.7,10.4,83,30.17,4.0,ENE,5.8,-,N/A,Snow,Light Snow,60,2013-12-14 13:55:00
8:15 AM,14.9,10.4,82,30.18,5.0,ENE,4.6,-,N/A,,Haze,70,2013-12-14 14:15:00
8:35 AM,15.3,10.6,82,30.18,5.0,ENE,5.8,-,N/A,,Haze,70,2013-12-14 14:35:00
8:55 AM,15.6,10.9,82,30.18,4.0,East,8.1,-,N/A,,Clear,80,2013-12-14 14:55:00
9:15 AM,15.8,11.1,82,30.18,3.0,ENE,4.6,-,N/A,Snow,Light Snow,60,2013-12-14 15:15:00
9:35 AM,16.3,11.7,82,30.18,2.0,NE,4.6,-,N/A,Snow,Light Snow,50,2013-12-14 15:35:00
9:55 AM,16.7,12.0,82,30.16,2.0,ENE,6.9,-,N/A,Snow,Light Snow,70,2013-12-14 15:55:00
10:15 AM,17.6,11.8,78,30.16,7.0,ENE,6.9,-,N/A,Snow,Light Snow,60,2013-12-14 16:15:00
10:35 AM,18.0,12.0,78,30.15,7.0,ENE,4.6,-,N/A,Snow,Light Snow,70,2013-12-14 16:35:00
10:55 AM,18.3,12.9,79,30.14,2.0,ENE,5.8,-,N/A,Snow,Light Snow,70,2013-12-14 16:55:00
11:15 AM,19.2,13.3,78,30.13,3.0,East,6.9,-,N/A,Snow,Light Snow,90,2013-12-14 17:15:00
11:35 AM,19.4,13.5,78,30.11,5.0,ENE,4.6,-,N/A,,Haze,70,2013-12-14 17:35:00
11:55 AM,19.9,13.3,75,30.11,10.0,ENE,4.6,-,N/A,,Clear,60,2013-12-14 17:55:00
12:15 PM,20.3,13.3,74,30.10,10.0,Calm,Calm,-,N/A,,Clear,0,2013-12-14 18:15:00
12:35 PM,20.7,13.5,74,30.09,5.0,ESE,3.5,-,N/A,Snow,Light Snow,110,2013-12-14 18:35:00
12:55 PM,20.8,13.8,74,30.08,5.0,ENE,3.5,-,N/A,Snow,Light Snow,60,2013-12-14 18:55:00
1:15 PM,21.0,14.0,74,30.07,4.0,NE,3.5,-,N/A,Snow,Light Snow,50,2013-12-14 19:15:00
1:35 PM,21.6,14.4,74,30.06,3.0,East,3.5,-,N/A,Snow,Light Snow,100,2013-12-14 19:35:00
1:55 PM,21.9,14.4,73,30.06,0.8,East,3.5,-,N/A,Snow,Light Snow,100,2013-12-14 19:55:00
2:15 PM,21.2,13.8,73,30.06,7.0,Calm,Calm,-,N/A,Snow,Light Snow,0,2013-12-14 20:15:00
2:35 PM,21.2,14.4,75,30.05,10.0,Calm,Calm,-,N/A,Snow,Light Snow,0,2013-12-14 20:35:00
2:55 PM,21.0,14.5,76,30.05,10.0,Calm,Calm,-,N/A,,Overcast,0,2013-12-14 20:55:00
3:15 PM,21.0,14.5,76,30.04,7.0,Calm,Calm,-,N/A,Snow,Light Snow,0,2013-12-14 21:15:00
3:35 PM,20.8,14.7,77,30.05,2.5,NW,3.5,-,N/A,Snow,Light Snow,320,2013-12-14 21:35:00
3:55 PM,20.7,14.9,78,30.05,4.0,West,4.6,-,N/A,Snow,Light Snow,270,2013-12-14 21:55:00
4:15 PM,20.5,14.9,79,30.04,3.0,WSW,3.5,-,N/A,Snow,Light Snow,250,2013-12-14 22:15:00
4:35 PM,20.3,15.3,81,30.04,2.5,WSW,3.5,-,N/A,Snow,Light Snow,250,2013-12-14 22:35:00
4:55 PM,19.9,15.4,83,30.03,5.0,West,3.5,-,N/A,Snow,Light Snow,260,2013-12-14 22:55:00
5:15 PM,19.9,15.6,83,30.04,10.0,West,4.6,-,N/A,Snow,Light Snow,270,2013-12-14 23:15:00
5:35 PM,19.4,15.4,85,30.03,10.0,WSW,3.5,-,N/A,Snow,Light Snow,240,2013-12-14 23:35:00
5:55 PM,19.2,15.4,85,30.02,10.0,WSW,4.6,-,N/A,Snow,Light Snow,240,2013-12-14 23:55:00
6:15 PM,19.2,14.9,83,30.03,10.0,West,5.8,-,N/A,,Overcast,270,2013-12-15 00:15:00
6:35 PM,19.0,14.7,83,30.02,10.0,West,4.6,-,N/A,Snow,Light Snow,280,2013-12-15 00:35:00
6:55 PM,18.9,14.5,83,30.02,10.0,WNW,4.6,-,N/A,Snow,Light Snow,290,2013-12-15 00:55:00
7:15 PM,18.5,14.0,83,30.01,10.0,West,4.6,-,N/A,Snow,Light Snow,270,2013-12-15 01:15:00
7:35 PM,18.1,13.1,81,30.01,10.0,West,8.1,-,N/A,Snow,Light Snow,280,2013-12-15 01:35:00
7:55 PM,18.0,12.9,81,30.01,10.0,West,9.2,-,N/A,Snow,Light Snow,270,2013-12-15 01:55:00
8:15 PM,17.4,12.0,79,30.01,10.0,West,9.2,-,N/A,Snow,Light Snow,270,2013-12-15 02:15:00
8:35 PM,16.5,11.3,80,30.01,7.0,West,9.2,-,N/A,Snow,Light Snow,280,2013-12-15 02:35:00
8:55 PM,16.2,10.8,79,30.00,4.0,West,10.4,-,N/A,Snow,Light Snow,280,2013-12-15 02:55:00
9:15 PM,15.6,10.9,82,30.00,4.0,West,9.2,-,N/A,Snow,Light Snow,280,2013-12-15 03:15:00
9:35 PM,15.1,11.1,84,30.00,2.5,West,6.9,-,N/A,Snow,Light Snow,280,2013-12-15 03:35:00
9:55 PM,14.7,10.9,85,29.99,2.5,West,8.1,-,N/A,Snow,Light Snow,260,2013-12-15 03:55:00
10:15 PM,14.5,10.2,83,29.99,5.0,West,10.4,-,N/A,Snow,Light Snow,270,2013-12-15 04:15:00
10:35 PM,13.8,7.7,77,29.99,10.0,West,10.4,-,N/A,Snow,Light Snow,280,2013-12-15 04:35:00
10:55 PM,13.1,7.5,78,29.99,10.0,West,9.2,-,N/A,Snow,Light Snow,270,2013-12-15 04:55:00
11:15 PM,12.2,6.4,78,29.99,10.0,West,9.2,17.3,N/A,Snow,Light Snow,270,2013-12-15 05:15:00
11:35 PM,12.0,5.9,76,30.00,10.0,West,9.2,-,N/A,,Overcast,270,2013-12-15 05:35:00
11:55 PM,11.7,5.7,77,29.99,10.0,WNW,10.4,-,N/A,Snow,Light Snow,290,2013-12-15 05:55:00